Location: Owl Hollow
(40.7341°N, 104.4073°W)
Time: 03:51:27
(UTC-07:00)

ISS - Visible Passes

Search period start: 18 February 2018 00:00
Search period end: 28 February 2018 00:00
Orbit: 403 x 407 km, 51.6° (Epoch: 19 February)

Date Brightness Start Highest point End Pass type
(mag) Time Alt. Az. Time Alt. Az. Time Alt. Az.
25 Feb -0.8 05:23:23 10° SSE 05:25:01 13° SE 05:26:38 10° E visible
26 Feb -3.4 06:05:36 10° SW 06:08:49 63° SE 06:12:04 10° ENE visible
27 Feb -2.1 05:13:56 12° SSW 05:16:38 31° SE 05:19:35 10° ENE visible
